This demonstration page uses our WeatherBlox Daily Observations layout. Learn more.

Left ArrowRight Arrow

38.80484, -77.04692

Hourly Observations for November 6, 2020

Temp ( °F °C ) Dew Point ( °F °C ) Humidity (%) Winds ( mph kmh ) Pressure ( in mb ) Visibility ( mi km ) Precip ( " mm )
12:52 am 00:52 Mostly Cloudy 51 10.6 48 8.9 89 89 Calm 30.32 1027 10 16.0934 0 0
1:52 am 01:52 Mostly Cloudy 51 10.6 49 9.4 92 92 Calm 30.32 1027 10 16.0934 0 0
2:52 am 02:52 Mostly Cloudy 51 10.6 49 9.4 92 92 Calm 30.32 1027 10 16.0934 0 0
3:52 am 03:52 Mostly Cloudy 51 10.6 48 8.9 89 89 Calm 30.32 1027 10 16.0934 0 0
4:52 am 04:52 Mostly Cloudy 50 10 48 8.9 93 93 Calm 30.31 1026 10 16.0934 0 0
5:52 am 05:52 Cloudy 50 10 48 8.9 93 93 Calm 30.31 1027 8 12.87472 0 0
6:52 am 06:52 Cloudy 50 10 49 9.4 96 96 Calm 30.32 1027 8 12.87472 0 0
7:52 am 07:52 Mostly Cloudy 51 10.6 50 10 96 96 Calm 30.35 1028 9 14.48406 0 0
8:52 am 08:52 Mostly Cloudy 53 11.7 51 10.6 93 93 S 3 6 30.34 1027 8 12.87472 0 0
9:52 am 09:52 Mostly Cloudy 55 12.8 52 11.1 90 90 SSE 5 7 30.34 1028 8 12.87472 0 0
10:52 am 10:52 Partly Cloudy 60 15.6 51 10.6 72 72 S 6 9 30.34 1027 10 16.0934 0 0
11:52 am 11:52 Mostly Sunny 64 17.8 52 11.1 65 65 S 7 11 30.32 1027 10 16.0934 0 0
12:52 pm 12:52 Mostly Sunny 68 20 51 10.6 55 55 S 7 11 30.29 1026 10 16.0934 0 0
1:52 pm 13:52 Mostly Sunny 70 21.1 48 8.9 46 46 S 9 15 30.26 1025 10 16.0934 0 0
2:52 pm 14:52 Mostly Sunny 68 20 47 8.3 47 47 S 10 17 30.25 1025 10 16.0934 0 0
3:52 pm 15:52 Mostly Sunny 68 20 46 7.8 45 45 S 8 13 30.26 1025 10 16.0934 0 0
4:52 pm 16:52 Partly Cloudy 64 17.8 46 7.8 52 52 S 7 11 30.27 1025 10 16.0934 0 0
5:52 pm 17:52 Mostly Clear 62 16.7 46 7.8 56 56 S 7 11 30.28 1025 10 16.0934 0 0
6:52 pm 18:52 Clear 58 14.4 50 10 75 75 S 6 9 30.28 1025 10 16.0934 0 0
7:52 pm 19:52 Clear 55 12.8 50 10 83 83 S 7 11 30.28 1025 10 16.0934 0 0
8:52 pm 20:52 Clear 55 12.8 49 9.4 80 80 SSW 3 6 30.29 1026 10 16.0934 0 0
9:52 pm 21:52 Clear 53 11.7 50 10 89 89 S 3 6 30.29 1026 10 16.0934 0 0
10:52 pm 22:52 Clear 53 11.7 49 9.4 86 86 SSW 5 7 30.29 1026 7 11.26538 0 0
11:52 pm 23:52 Clear 53 11.7 48 8.9 83 83 Calm 30.29 1026 9 14.48406 0 0

Powered by AerisWeather